| time (UTC) | temp F | wind direction | speed knots | gust knots | rain 1hr in | rain 24hr in | rain mn in | humidity % | barometer mb |
| 20260506231546 | 71 | 216 | 2.6 | 13.9 | 0.00 | 0.00 | 0.00 | 85 | 1014.1 |
| 20260506230048 | 71 | 210 | 2.6 | 11.3 | 0.00 | 0.00 | 0.00 | 84 | 1014.2 |
| 20260506224546 | 72 | 248 | 3.5 | 10.4 | 0.00 | 0.00 | 0.00 | 84 | 1014.7 |
| 20260506223043 | 72 | 229 | 2.6 | 13.9 | 0.00 | 0.00 | 0.00 | 83 | 1013.8 |
| 20260506221542 | 72 | 215 | 4.3 | 12.2 | 0.00 | 0.00 | 0.00 | 83 | 1013.6 |
| 20260506220044 | 73 | 225 | 4.3 | 13.9 | 0.00 | 0.00 | 0.00 | 82 | 1014.5 |
| 20260506214536 | 73 | 202 | 5.2 | 10.4 | 0.00 | 0.00 | 0.00 | 81 | 1014.6 |
| 20260506213034 | 74 | 246 | 6.1 | 15.6 | 0.00 | 0.00 | 0.00 | 80 | 1014.9 |
| 20260506211536 | 75 | 201 | 3.5 | 9.6 | 0.00 | 0.00 | 0.00 | 79 | 1015.0 |
| 20260506210033 | 75 | 228 | 3.5 | 14.8 | 0.00 | 0.00 | 0.00 | 79 | 1015.1 |
| 20260506204534 | 76 | 217 | 5.2 | 11.3 | 0.00 | 0.00 | 0.00 | 78 | 1015.2 |
| 20260506203043 | 75 | 212 | 4.3 | 13.0 | 0.00 | 0.00 | 0.00 | 78 | 1015.3 |
| 20260506201528 | 76 | 228 | 3.5 | 10.4 | 0.00 | 0.00 | 0.00 | 78 | 1015.4 |
| 20260506200031 | 76 | 217 | 5.2 | 13.0 | 0.00 | 0.00 | 0.00 | 78 | 1015.4 |
| 20260506194526 | 76 | 230 | 6.1 | 10.4 | 0.00 | 0.00 | 0.00 | 79 | 1015.6 |
| 20260506193025 | 76 | 239 | 5.2 | 13.9 | 0.00 | 0.00 | 0.00 | 78 | 1015.5 |
| 20260506191524 | 76 | 186 | 5.2 | 14.8 | 0.00 | 0.00 | 0.00 | 78 | 1015.5 |
| 20260506190032 | 76 | 229 | 2.6 | 12.2 | 0.00 | 0.00 | 0.00 | 78 | 1015.8 |
| 20260506184519 | 76 | 209 | 6.1 | 14.8 | 0.00 | 0.00 | 0.00 | 77 | 1016.1 |
| 20260506183017 | 76 | 236 | 6.1 | 13.9 | 0.00 | 0.00 | 0.00 | 77 | 1016.5 |
| 20260506181515 | 76 | 207 | 4.3 | 15.6 | 0.00 | 0.00 | 0.00 | 77 | 1016.7 |
| 20260506180015 | 77 | 228 | 6.1 | 18.2 | 0.00 | 0.00 | 0.00 | 77 | 1016.8 |
| 20260506174515 | 77 | 229 | 3.5 | 12.2 | 0.00 | 0.00 | 0.00 | 77 | 1016.8 |
| 20260506173011 | 77 | 202 | 4.3 | 9.6 | 0.00 | 0.00 | 0.00 | 77 | 1016.9 |
| 20260506171515 | 76 | 229 | 4.3 | 12.2 | 0.00 | 0.00 | 0.00 | 78 | 1017.1 |
| 20260506170009 | 75 | 223 | 4.3 | 13.9 | 0.00 | 0.00 | 0.00 | 78 | 1017.2 |
| 20260506164505 | 78 | 217 | 2.6 | 13.0 | 0.00 | 0.00 | 0.00 | 76 | 1017.6 |
| 20260506163004 | 77 | 227 | 4.3 | 13.0 | 0.00 | 0.00 | 0.00 | 75 | 1017.7 |
| 20260506161504 | 75 | 254 | 5.2 | 16.5 | 0.00 | 0.00 | 0.00 | 76 | 1017.8 |
| 20260506160001 | 76 | 211 | 2.6 | 13.0 | 0.00 | 0.00 | 0.00 | 76 | 1017.6 |
| 20260506154600 | 76 | 194 | 4.3 | 13.9 | 0.00 | 0.00 | 0.00 | 75 | 1017.6 |
| 20260506153129 | 76 | 232 | 3.5 | 12.2 | 0.00 | 0.00 | 0.00 | 74 | 1017.8 |
| 20260506151558 | 76 | 203 | 6.1 | 16.5 | 0.00 | 0.00 | 0.00 | 74 | 1017.8 |
| 20260506150057 | 75 | 263 | 3.5 | 13.0 | 0.00 | 0.00 | 0.00 | 75 | 1018.0 |
| 20260506144556 | 75 | 219 | 3.5 | 15.6 | 0.00 | 0.00 | 0.00 | 75 | 1017.9 |
| 20260506143056 | 75 | 225 | 5.2 | 13.0 | 0.00 | 0.00 | 0.00 | 75 | 1017.9 |
| 20260506141554 | 75 | 202 | 2.6 | 16.5 | 0.00 | 0.00 | 0.00 | 76 | 1017.7 |
| 20260506140054 | 75 | 246 | 2.6 | 11.3 | 0.00 | 0.00 | 0.00 | 76 | 1017.7 |
| 20260506134550 | 74 | 198 | 5.2 | 9.6 | 0.00 | 0.00 | 0.00 | 76 | 1017.7 |
| 20260506133050 | 74 | 240 | 5.2 | 11.3 | 0.00 | 0.00 | 0.00 | 76 | 1017.7 |
| 20260506131548 | 73 | 202 | 3.5 | 11.3 | 0.00 | 0.00 | 0.00 | 77 | 1017.7 |
| 20260506130048 | 73 | 196 | 3.5 | 10.4 | 0.00 | 0.00 | 0.00 | 76 | 1017.7 |
| 20260506124546 | 72 | 244 | 3.5 | 8.7 | 0.00 | 0.00 | 0.00 | 77 | 1017.9 |
| 20260506123043 | 71 | 223 | 1.7 | 7.0 | 0.00 | 0.00 | 0.00 | 78 | 1017.8 |
| 20260506121547 | 71 | 171 | 1.7 | 7.8 | 0.00 | 0.00 | 0.00 | 77 | 1017.9 |
| 20260506120040 | 70 | 208 | 2.6 | 7.8 | 0.00 | 0.00 | 0.00 | 77 | 1018.1 |
| 20260506114534 | 69 | 197 | 0.9 | 6.1 | 0.00 | 0.00 | 0.00 | 77 | 1018.1 |
| 20260506113031 | 69 | 192 | 2.6 | 7.0 | 0.00 | 0.00 | 0.00 | 77 | 1018.0 |
| 20260506111534 | 68 | 200 | 2.6 | 6.1 | 0.00 | 0.00 | 0.00 | 79 | 1017.9 |
| 20260506110030 | 67 | 216 | 1.7 | 7.0 | 0.00 | 0.00 | 0.00 | 81 | 1017.6 |
| 20260506104529 | 66 | 173 | 0.9 | 3.5 | 0.00 | 0.00 | 0.00 | 81 | 1017.8 |
| 20260506103031 | 66 | 198 | 0.9 | 5.2 | 0.00 | 0.00 | 0.00 | 81 | 1017.7 |
| 20260506101528 | 66 | 209 | 0.9 | 3.5 | 0.00 | 0.00 | 0.00 | 81 | 1017.8 |
| 20260506100030 | 66 | 200 | 1.7 | 5.2 | 0.00 | 0.00 | 0.00 | 81 | 1017.6 |
| 20260506094525 | 66 | 181 | 0.9 | 5.2 | 0.00 | 0.00 | 0.00 | 80 | 1017.6 |
| 20260506093023 | 66 | 205 | 0.9 | 4.3 | 0.00 | 0.00 | 0.00 | 79 | 1017.8 |
| 20260506091524 | 66 | 209 | 1.7 | 5.2 | 0.00 | 0.00 | 0.00 | 78 | 1017.8 |
| 20260506090024 | 66 | 184 | 0.9 | 5.2 | 0.00 | 0.00 | 0.00 | 78 | 1017.9 |
| 20260506084533 | 66 | 208 | 0.9 | 5.2 | 0.00 | 0.00 | 0.00 | 77 | 1017.8 |
| 20260506083024 | 66 | 173 | 0.9 | 7.0 | 0.00 | 0.00 | 0.00 | 76 | 1017.7 |
| 20260506081519 | 67 | 220 | 0.9 | 6.1 | 0.00 | 0.00 | 0.00 | 76 | 1017.8 |
| 20260506073016 | 67 | 217 | 2.6 | 7.0 | 0.00 | 0.00 | 0.00 | 77 | 1017.7 |
| 20260506071519 | 67 | 234 | 0.9 | 4.3 | 0.00 | 0.00 | 0.00 | 76 | 1017.6 |
| 20260506061510 | 68 | 244 | 1.7 | 10.4 | 0.00 | 0.00 | 0.00 | 77 | 1018.2 |
| 20260506050118 | 68 | 169 | 2.6 | 10.4 | 0.00 | 0.00 | 0.00 | 76 | 1018.6 |
| 20260506044609 | 68 | 190 | 4.3 | 9.6 | 0.00 | 0.00 | 0.00 | 75 | 1018.8 |
| 20260506043058 | 68 | 236 | 4.3 | 10.4 | 0.00 | 0.00 | 0.00 | 75 | 1018.9 |
| 20260506041601 | 68 | 221 | 0.9 | 12.2 | 0.00 | 0.00 | 0.00 | 75 | 1019.1 |
| 20260506040050 | 68 | 203 | 1.7 | 12.2 | 0.00 | 0.00 | 0.00 | 74 | 1019.2 |
| 20260506034552 | 68 | 194 | 2.6 | 10.4 | 0.00 | 0.00 | 0.00 | 74 | 1019.1 |
| 20260506033048 | 68 | 195 | 3.5 | 12.2 | 0.00 | 0.00 | 0.00 | 75 | 1019.1 |
| 20260506031548 | 68 | 162 | 3.5 | 9.6 | 0.00 | 0.00 | 0.00 | 75 | 1019.1 |
| 20260506030047 | 67 | 184 | 4.3 | 10.4 | 0.00 | 0.00 | 0.00 | 75 | 1019.1 |
| 20260506024546 | 67 | 165 | 3.5 | 13.0 | 0.00 | 0.00 | 0.00 | 75 | 1019.1 |
| 20260506023058 | 68 | 176 | 0.9 | 10.4 | 0.00 | 0.00 | 0.00 | 75 | 1019.3 |
| 20260506021545 | 68 | 189 | 2.6 | 10.4 | 0.00 | 0.00 | 0.00 | 75 | 1019.4 |
| 20260506020051 | 68 | 142 | 4.3 | 13.0 | 0.00 | 0.00 | 0.00 | 74 | 1019.4 |
| 20260506014544 | 68 | 149 | 3.5 | 10.4 | 0.00 | 0.00 | 0.00 | 75 | 1019.5 |
| 20260506013052 | 68 | 182 | 1.7 | 12.2 | 0.00 | 0.00 | 0.00 | 75 | 1019.4 |
| 20260506011546 | 68 | 201 | 4.3 | 12.2 | 0.00 | 0.00 | 0.00 | 73 | 1019.4 |
| 20260506010042 | 68 | 201 | 4.3 | 10.4 | 0.00 | 0.00 | 0.00 | 75 | 1019.3 |
| 20260506004540 | 68 | 205 | 3.5 | 9.6 | 0.00 | 0.00 | 0.00 | 75 | 1019.1 |
| 20260506003041 | 68 | 172 | 1.7 | 13.0 | 0.00 | 0.00 | 0.00 | 74 | 1019.0 |
| 20260506001539 | 68 | 194 | 4.3 | 12.2 | 0.00 | 0.00 | 0.00 | 73 | 1019.1 |
| 20260506000038 | 68 | 226 | 3.5 | 13.9 | 0.00 | 0.00 | 0.00 | 73 | 1019.1 |
| 20260505234538 | 68 | 176 | 3.5 | 8.7 | 0.00 | 0.00 | 0.00 | 74 | 1018.8 |
| 20260505233037 | 69 | 194 | 2.6 | 13.9 | 0.00 | 0.00 | 0.00 | 73 | 1018.6 |